Hourly Weather Judeida

Today, 25 September, Friday

Time Temperature Precipitation Wind Pressure Humidity
00:00 +23°C° 0 mm 1 mps 751 mmHg 83%
01:00 +23°C° 0 mm 1 mps 751 mmHg 84%
02:00 +23°C° 0 mm 1 mps 751 mmHg 86%
03:00 +23°C° 0 mm 1 mps 751 mmHg 86%
04:00 +22°C° 0 mm 1 mps 751 mmHg 87%
05:00 +22°C° 0 mm 1 mps 751 mmHg 87%
06:00 +24°C° 0 mm 2 mps 751 mmHg 80%
07:00 +26°C° 0 mm 2 mps 751 mmHg 73%
08:00 +28°C° 0 mm 2 mps 751 mmHg 65%
09:00 +29°C° 0 mm 3 mps 751 mmHg 59%
10:00 +32°C° 0 mm 4 mps 751 mmHg 53%
11:00 +33°C° 0 mm 4 mps 751 mmHg 47%
12:00 +33°C° 0 mm 4 mps 751 mmHg 49%
13:00 +33°C° 0 mm 5 mps 750 mmHg 50%
14:00 +33°C° 0 mm 5 mps 750 mmHg 51%
15:00 +32°C° 0 mm 5 mps 750 mmHg 56%
16:00 +29°C° 0 mm 4 mps 750 mmHg 60%
17:00 +28°C° 0 mm 4 mps 750 mmHg 65%
18:00 +27°C° 0 mm 3 mps 750 mmHg 70%
19:00 +26°C° 0 mm 2 mps 750 mmHg 75%
20:00 +25°C° 0 mm 2 mps 750 mmHg 81%
21:00 +25°C° 0 mm 1 mps 750 mmHg 81%
22:00 +25°C° 0 mm 1 mps 750 mmHg 81%
23:00 +24°C° 0 mm 1 mps 750 mmHg 82%

Tomorrow, 26 September, Saturday

Time Temperature Precipitation Wind Pressure Humidity
00:00 +24°C° 0 mm 1 mps 750 mmHg 83%
01:00 +24°C° 0 mm 1 mps 750 mmHg 83%
02:00 +24°C° 0 mm 1 mps 749 mmHg 84%
03:00 +24°C° 0 mm 1 mps 749 mmHg 84%
04:00 +22°C° 0 mm 0 mps 750 mmHg 84%
05:00 +22°C° 0 mm 0 mps 750 mmHg 83%
06:00 +23°C° 0 mm 0 mps 750 mmHg 77%
07:00 +27°C° 0 mm 1 mps 750 mmHg 70%
08:00 +29°C° 0 mm 1 mps 750 mmHg 63%
09:00 +30°C° 0 mm 2 mps 750 mmHg 57%
10:00 +31°C° 0 mm 2 mps 750 mmHg 52%
11:00 +33°C° 0 mm 3 mps 751 mmHg 47%
12:00 +33°C° 0 mm 4 mps 750 mmHg 47%
13:00 +33°C° 0 mm 5 mps 750 mmHg 47%
14:00 +33°C° 0 mm 5 mps 750 mmHg 47%
15:00 +30°C° 0 mm 5 mps 750 mmHg 52%
16:00 +29°C° 0 mm 5 mps 750 mmHg 57%
17:00 +28°C° 0 mm 5 mps 750 mmHg 63%
18:00 +27°C° 0 mm 4 mps 750 mmHg 68%
19:00 +26°C° 0 mm 4 mps 751 mmHg 72%
20:00 +25°C° 0 mm 3 mps 751 mmHg 77%
21:00 +24°C° 0 mm 3 mps 751 mmHg 78%
22:00 +24°C° 0 mm 3 mps 751 mmHg 78%
23:00 +24°C° 0 mm 3 mps 751 mmHg 79%

Day after tomorrow, 27 September, Sunday

Time Temperature Precipitation Wind Pressure Humidity
00:00 +24°C° 0 mm 3 mps 751 mmHg 80%
01:00 +24°C° 0 mm 3 mps 751 mmHg 81%
02:00 +23°C° 0 mm 2 mps 751 mmHg 81%
03:00 +23°C° 0 mm 2 mps 751 mmHg 82%
04:00 +23°C° 0 mm 2 mps 752 mmHg 83%
05:00 +21°C° 0 mm 2 mps 752 mmHg 83%
06:00 +24°C° 0 mm 1 mps 752 mmHg 74%
07:00 +26°C° 0 mm 1 mps 752 mmHg 65%
08:00 +28°C° 0 mm 1 mps 753 mmHg 56%
09:00 +30°C° 0 mm 2 mps 753 mmHg 50%
10:00 +32°C° 0 mm 2 mps 753 mmHg 45%
11:00 +35°C° 0 mm 3 mps 753 mmHg 39%
12:00 +35°C° 0 mm 4 mps 753 mmHg 41%
13:00 +35°C° 0 mm 5 mps 752 mmHg 43%
14:00 +35°C° 0 mm 6 mps 752 mmHg 45%
15:00 +33°C° 0 mm 6 mps 752 mmHg 51%
16:00 +32°C° 0 mm 6 mps 752 mmHg 57%
17:00 +30°C° 0 mm 6 mps 752 mmHg 63%
18:00 +28°C° 0 mm 5 mps 752 mmHg 68%
19:00 +27°C° 0 mm 5 mps 753 mmHg 73%
20:00 +26°C° 0 mm 4 mps 753 mmHg 77%
21:00 +26°C° 0 mm 4 mps 753 mmHg 76%
22:00 +26°C° 0 mm 4 mps 753 mmHg 75%
23:00 +26°C° 0 mm 3 mps 753 mmHg 74%

28 September, Monday

Time Temperature Precipitation Wind Pressure Humidity
00:00 +26°C° 0 mm 3 mps 753 mmHg 71%
01:00 +26°C° 0 mm 3 mps 753 mmHg 67%
02:00 +26°C° 0 mm 3 mps 753 mmHg 64%
03:00 +26°C° 0 mm 3 mps 753 mmHg 63%
04:00 +26°C° 0 mm 3 mps 753 mmHg 63%
05:00 +26°C° 0 mm 3 mps 753 mmHg 62%
06:00 +29°C° 0 mm 3 mps 754 mmHg 53%
07:00 +31°C° 0 mm 3 mps 754 mmHg 44%
08:00 +35°C° 0 mm 3 mps 754 mmHg 35%
09:00 +36°C° 0 mm 4 mps 754 mmHg 33%
10:00 +39°C° 0 mm 5 mps 754 mmHg 31%
11:00 +40°C° 0 mm 6 mps 754 mmHg 29%
12:00 +40°C° 0 mm 7 mps 753 mmHg 30%
13:00 +40°C° 0 mm 7 mps 753 mmHg 31%
14:00 +40°C° 0 mm 8 mps 752 mmHg 32%
15:00 +38°C° 0 mm 7 mps 752 mmHg 36%
16:00 +35°C° 0 mm 7 mps 752 mmHg 40%
17:00 +34°C° 0 mm 6 mps 752 mmHg 43%
18:00 +32°C° 0 mm 6 mps 752 mmHg 52%
19:00 +30°C° 0 mm 6 mps 752 mmHg 60%
20:00 +28°C° 0 mm 5 mps 752 mmHg 69%
21:00 +28°C° 0 mm 5 mps 752 mmHg 70%
22:00 +27°C° 0 mm 4 mps 752 mmHg 71%
23:00 +27°C° 0 mm 3 mps 752 mmHg 72%

29 September, Tuesday

Time Temperature Precipitation Wind Pressure Humidity
00:00 +27°C° 0 mm 3 mps 752 mmHg 69%
01:00 +27°C° 0 mm 3 mps 752 mmHg 66%
02:00 +27°C° 0 mm 2 mps 752 mmHg 63%
03:00 +26°C° 0 mm 2 mps 752 mmHg 61%
04:00 +26°C° 0 mm 2 mps 752 mmHg 60%
05:00 +26°C° 0 mm 2 mps 752 mmHg 59%
06:00 +28°C° 0 mm 1 mps 752 mmHg 50%
07:00 +31°C° 0 mm 1 mps 752 mmHg 41%
08:00 +33°C° 0 mm 1 mps 752 mmHg 31%
09:00 +36°C° 0 mm 2 mps 752 mmHg 30%
10:00 +37°C° 0 mm 2 mps 751 mmHg 28%
11:00 +39°C° 0 mm 3 mps 751 mmHg 27%
12:00 +39°C° 0 mm 3 mps 751 mmHg 30%
13:00 +38°C° 0 mm 4 mps 750 mmHg 33%
14:00 +39°C° 0 mm 5 mps 749 mmHg 36%
15:00 +36°C° 0 mm 5 mps 749 mmHg 41%
16:00 +35°C° 0 mm 4 mps 749 mmHg 46%
17:00 +33°C° 0 mm 4 mps 749 mmHg 51%
18:00 +32°C° 0 mm 4 mps 749 mmHg 59%
19:00 +29°C° 0 mm 4 mps 749 mmHg 68%
20:00 +28°C° 0 mm 4 mps 749 mmHg 76%
21:00 +27°C° 0 mm 4 mps 749 mmHg 74%
22:00 +27°C° 0 mm 3 mps 749 mmHg 72%
23:00 +27°C° 0 mm 3 mps 749 mmHg 71%

30 September, Wednesday

Time Temperature Precipitation Wind Pressure Humidity
00:00 +28°C° 0 mm 3 mps 749 mmHg 66%
01:00 +28°C° 0 mm 2 mps 748 mmHg 61%
02:00 +28°C° 0 mm 2 mps 748 mmHg 56%
03:00 +27°C° 0 mm 2 mps 748 mmHg 61%
04:00 +27°C° 0 mm 2 mps 748 mmHg 67%
05:00 +26°C° 0 mm 2 mps 748 mmHg 72%
06:00 +28°C° 0 mm 2 mps 748 mmHg 67%
07:00 +29°C° 0 mm 2 mps 748 mmHg 63%
08:00 +31°C° 0 mm 2 mps 749 mmHg 58%
09:00 +33°C° 0 mm 3 mps 749 mmHg 54%
10:00 +35°C° 0 mm 3 mps 748 mmHg 50%
11:00 +36°C° 0 mm 4 mps 748 mmHg 45%
12:00 +36°C° 0 mm 4 mps 748 mmHg 46%
13:00 +36°C° 0 mm 4 mps 748 mmHg 46%
14:00 +35°C° 0 mm 4 mps 747 mmHg 47%
15:00 +34°C° 0 mm 4 mps 747 mmHg 54%
16:00 +32°C° 0 mm 4 mps 747 mmHg 61%
17:00 +30°C° 0 mm 4 mps 747 mmHg 68%
18:00 +28°C° 0 mm 3 mps 747 mmHg 74%
19:00 +27°C° 0 mm 3 mps 748 mmHg 80%
20:00 +26°C° 0 mm 2 mps 748 mmHg 86%
21:00 +25°C° 0 mm 2 mps 748 mmHg 85%
22:00 +25°C° 0 mm 2 mps 748 mmHg 84%
23:00 +25°C° 0 mm 1 mps 748 mmHg 83%
Show more